Overview Statistics Trail Chart Weather Telemetry Raw packets
 

This is the latest recevied weather packets stored in our database for station/object KO4LCK. If no packets are shown the sender has not sent any weather packets the latest 10 day(s).

<< 76 77 78 79 80 81 82 >>
Time Temp. Humidity Pressure Rain* Wind** Luminosity Snow
1788096858 26.11° C 82% 1023.5 hPa 0 mm - 291 W/m² -
1788096553 26.11° C 82% 1023.7 hPa 0 mm - 217 W/m² -
1788096249 25.56° C 83% 1023.7 hPa 0 mm - 243 W/m² -
1788095948 25° C 85% 1023.7 hPa 0 mm - 255 W/m² -
1788095648 25° C 85% 1023.7 hPa 0 mm - 163 W/m² -
1788095348 25° C 84% 1023.5 hPa 0 mm - 102 W/m² -
1788095038 25° C 85% 1023.3 hPa 0 mm - 89 W/m² -
1788094737 25° C 86% 1023.6 hPa 0 mm - 161 W/m² -
1788094433 24.44° C 88% 1023.3 hPa 0 mm - 139 W/m² -
1788094130 23.89° C 91% 1023.4 hPa 0 mm - 95 W/m² -
1788093825 23.33° C 93% 1023.2 hPa 0 mm - 111 W/m² -
1788093522 22.78° C 95% 1023.2 hPa 0 mm - 102 W/m² -
1788093219 22.78° C 96% 1023.4 hPa 0 mm - 58 W/m² -
1788092916 22.22° C 96% 1023.1 hPa 0 mm - 52 W/m² -
1788092624 22.22° C 96% 1023.1 hPa 0 mm - 48 W/m² -
1788092306 22.22° C 96% 1023 hPa 0 mm - 45 W/m² -
1788092006 21.67° C 96% 1022.8 hPa 0 mm - 42 W/m² -
1788091701 21.67° C 96% 1022.9 hPa 0 mm - 39 W/m² -
1788091397 21.67° C 96% 1022.9 hPa 0 mm - 36 W/m² -
1788091092 21.67° C 96% 1023 hPa 0 mm - 33 W/m² -
1788090788 21.67° C 96% 1022.8 hPa 0 mm - 29 W/m² -
1788090484 21.67° C 96% 1022.7 hPa 0 mm - 26 W/m² -
1788089628 21.11° C 95% 1022.4 hPa 0 mm - 9 W/m² -
1788089324 21.11° C 95% 1022.4 hPa 0 mm - 9 W/m² -
1788089020 21.11° C 95% 1022.3 hPa 0 mm - 8 W/m² -

* Rain latest hour (hover to see other rain measurements)
** Current wind speed in m/s (hover to see current wind gust speed)